User: anonymous   Login
Location: Unspecified
(0.0000°N, 0.0000°E)
Time: 20:16:09
(UTC+00:00)
Language:

STARLINK-35833 - Orbit

View from above orbital plane
View from above orbital plane
View from above satellite
View from above satellite

Ground track
Ground track

The orbit is defined by the following mean orbital elements,

1 66542U          26145.55536612 +.00000000 +00000-0 +76202-3 0 00007
2 66542  43.0003 204.3103 0001409 305.3047  54.7673 15.27572856    04
Epoch (UTC): 25 May 2026 13:19:43
Eccentricity: 0.0001409
inclination: 43.0003°
perigee height: 482 km
apogee height: 484 km
right ascension of ascending node: 204.3103°
argument of perigee: 305.3047°
revolutions per day: 15.27572856
mean anomaly at epoch: 54.7673°

The dashed part of the orbit path shows where the satellite is in the earth's shadow,  

DLR